Location: Oakley
(37.9974°N, 121.7125°W)
Time: 03:04:04
(UTC+00:00)

FengYun 1-2 T - Pass Details

Date: 13 February 2026
Orbit: 844 x 880 km, 98.8° (Epoch: 7 March)

Event Time Altitude Azimuth Distance (km) Brightness Sun altitude
Rises 13:12:22 0° 7° (N) 3,412 7.4 -21.6°
Reaches altitude 10° 13:14:47 10° 3° (N) 2,472 6.7 -21.1°
Maximum altitude 13:20:05 53° 288° (WNW) 1,035 4.3 -20.0°
Drops below altitude 10° 13:25:22 10° 213° (SSW) 2,463 6.3 -19.0°
Enters shadow 13:25:24 10° 213° (SSW) 2,477 6.3 -19.0°
